Weather History for KI75 - February, 2014

Change the Weather History Date:

Tuesday, February 18, 2014

  Actual Average (KLWD) Record (KLWD)
Temperature  
Mean Temperature 42 °F 29 °F  
Max Temperature 51 °F 39 °F 63 °F (1981)
Min Temperature 33 °F 20 °F -5 °F (1993)
Degree Days  
Heating Degree Days 23 36  
Month to date heating degree days 687  
Since 1 July heating degree days 4379  
Cooling Degree Days 0 0  
Month to date cooling degree days 0  
Year to date cooling degree days 0  
Moisture  
Dew Point 29 °F    
Average Humidity 61    
Maximum Humidity 78    
Minimum Humidity 46    
Precipitation  
Precipitation 0.00 in 0.05 in 0.81 in (1984)
Month to date precipitation 0.85  
Sea Level Pressure  
Sea Level Pressure 29.73 in    
Wind  
Wind Speed 12 mph (SW)    
Max Wind Speed 23 mph    
Max Gust Speed 29 mph    
Visibility 10 miles    
Events      
T = Trace of Precipitation, MM = Missing Value Source: NWS Daily Summary

Daily Weather History Graph

Daily Weather History Graph

Search for Another Location

Airport or City:

Trip Planner

Search our weather history database for the weather conditions in past years. The results will help you decide how hot, cold, wet, or windy it might be!

Date:

Astronomy

Feb. 18, 2014 Rise Set
Actual Time 7:05 AM CST 5:52 PM CST
Civil Twilight 6:37 AM CST 6:20 PM CST
Nautical Twilight 6:04 AM CST 6:53 PM CST
Astronomical Twilight 5:33 AM CST 7:24 PM CST
Moon 9:49 PM CST (2/18) 8:35 AM CST (2/18)
Length of Visible Light 11h 43m
Length of Day
10h 47m
Waning Gibbous, 87% of the Moon is Illuminated
Feb 18
Waning Gibbous
Feb 22
Last Quarter
Mar 1
New
Mar 8
First Quarter
Mar 16
Full

Hourly Weather History & Observations

Time (CST) Temp. Windchill Dew Point Humidity Pressure Visibility Wind Dir Wind Speed Gust Speed Precip Events Conditions
12:15 AM 33.8 °F 27.0 °F 25.2 °F 71% 29.89 in 10.0 mi South 8.1 mph - N/A   Clear
12:35 AM 33.4 °F 25.9 °F 24.8 °F 71% 29.89 in 10.0 mi South 9.2 mph - N/A   Clear
12:55 AM 33.3 °F 25.7 °F 24.8 °F 71% 29.88 in 10.0 mi South 9.2 mph - N/A   Clear
1:15 AM 34.3 °F 26.5 °F 24.8 °F 68% 29.86 in 10.0 mi South 10.4 mph - N/A   Clear
1:35 AM 34.0 °F 26.6 °F 24.6 °F 69% 29.86 in 10.0 mi South 9.2 mph - N/A   Clear
1:55 AM 33.6 °F 26.2 °F 24.4 °F 69% 29.86 in 10.0 mi South 9.2 mph - N/A   Clear
2:15 AM 34.2 °F 26.2 °F 24.4 °F 68% 29.85 in 10.0 mi South 10.4 mph - N/A   Clear
2:35 AM 34.2 °F 26.2 °F 24.4 °F 68% 29.83 in 10.0 mi South 10.4 mph - N/A   Clear
2:55 AM 34.2 °F 26.2 °F 24.4 °F 68% 29.83 in 10.0 mi South 10.4 mph - N/A   Clear
3:15 AM 34.0 °F 25.5 °F 24.3 °F 68% 29.81 in 10.0 mi South 11.5 mph - N/A   Clear
3:35 AM 34.7 °F 25.9 °F 24.3 °F 66% 29.79 in 10.0 mi South 12.7 mph - N/A   Clear
3:55 AM 35.1 °F 25.9 °F 24.4 °F 65% 29.79 in 10.0 mi South 13.8 mph - N/A   Clear
4:15 AM 34.9 °F 26.2 °F 24.3 °F 65% 29.77 in 10.0 mi South 12.7 mph - N/A   Clear
4:35 AM 35.2 °F 27.1 °F 24.3 °F 64% 29.76 in 10.0 mi South 11.5 mph - N/A   Clear
4:55 AM 34.5 °F 26.7 °F 24.3 °F 66% 29.76 in 10.0 mi South 10.4 mph - N/A   Clear
5:15 AM 34.9 °F 26.2 °F 24.4 °F 66% 29.74 in 10.0 mi South 12.7 mph - N/A   Clear
5:35 AM 36.1 °F 27.7 °F 24.4 °F 63% 29.73 in 10.0 mi South 12.7 mph - N/A   Clear
5:55 AM 37.0 °F 28.9 °F 24.4 °F 60% 29.73 in 10.0 mi South 12.7 mph - N/A   Clear
6:15 AM 36.5 °F 28.2 °F 24.6 °F 62% 29.72 in 10.0 mi South 12.7 mph - N/A   Clear
6:35 AM 36.7 °F 27.6 °F 24.6 °F 62% 29.71 in 10.0 mi South 15.0 mph 19.6 mph N/A   Clear
6:55 AM 36.9 °F 27.5 °F 24.8 °F 62% 29.70 in 10.0 mi South 16.1 mph 20.7 mph N/A   Clear
7:15 AM 36.7 °F 28.0 °F 25.0 °F 63% 29.72 in 10.0 mi SSW 13.8 mph - N/A   Clear
7:35 AM 37.2 °F 28.3 °F 25.2 °F 62% 29.71 in 10.0 mi South 15.0 mph 20.7 mph N/A   Clear
7:55 AM 37.9 °F 29.6 °F 25.5 °F 61% 29.71 in 10.0 mi SSW 13.8 mph 20.7 mph N/A   Clear
8:15 AM 39.2 °F 30.8 °F 25.7 °F 58% 29.71 in 10.0 mi South 15.0 mph - N/A   Clear
8:35 AM 39.4 °F 31.4 °F 26.2 °F 59% 29.71 in 10.0 mi SSW 13.8 mph 20.7 mph N/A   Clear
8:55 AM 40.5 °F 32.5 °F 26.6 °F 58% 29.70 in 10.0 mi South 15.0 mph - N/A   Clear
9:15 AM 41.9 °F 34.0 °F 26.4 °F 54% 29.69 in 10.0 mi South 16.1 mph - N/A   Clear
9:35 AM 43.3 °F 35.0 °F 26.8 °F 52% 29.68 in 10.0 mi SSW 19.6 mph 23.0 mph N/A   Clear
9:55 AM 44.2 °F 37.3 °F 27.3 °F 51% 29.67 in 10.0 mi SSW 15.0 mph - N/A   Clear
10:15 AM 45.9 °F 39.7 °F 27.5 °F 49% 29.66 in 10.0 mi SSW 13.8 mph 21.9 mph N/A   Clear
10:35 AM 46.8 °F - 27.1 °F 46% 29.65 in 10.0 mi SSW 20.7 mph 25.3 mph N/A   Clear
10:55 AM 46.4 °F 39.0 °F 27.1 °F 47% 29.65 in 10.0 mi SSW 19.6 mph 26.5 mph N/A   Clear
11:15 AM 47.5 °F - 27.9 °F 47% 29.63 in 10.0 mi SSW 18.4 mph 25.3 mph N/A   Clear
11:35 AM 48.2 °F - 28.4 °F 46% 29.64 in 10.0 mi SSW 23.0 mph 26.5 mph N/A   Clear
11:55 AM 48.7 °F - 28.8 °F 46% 29.65 in 10.0 mi SW 18.4 mph 28.8 mph N/A   Clear
12:15 PM 48.7 °F - 29.7 °F 48% 29.65 in 10.0 mi SSW 19.6 mph 26.5 mph N/A   Clear
12:35 PM 49.5 °F - 30.7 °F 49% 29.64 in 10.0 mi SW 16.1 mph 24.2 mph N/A   Clear
12:55 PM 50.0 °F - 30.7 °F 48% 29.63 in 10.0 mi SW 15.0 mph 21.9 mph N/A   Clear
1:15 PM 50.9 °F - 31.8 °F 48% 29.62 in 10.0 mi SW 15.0 mph 19.6 mph N/A   Clear
1:35 PM 51.1 °F - 32.0 °F 48% 29.61 in 10.0 mi SW 16.1 mph - N/A   Clear
1:55 PM 51.3 °F - 32.0 °F 48% 29.61 in 10.0 mi SW 15.0 mph 23.0 mph N/A   Clear
2:15 PM 51.1 °F - 32.2 °F 48% 29.60 in 10.0 mi SW 16.1 mph 24.2 mph N/A   Clear
2:35 PM 51.4 °F - 32.9 °F 49% 29.61 in 10.0 mi SW 16.1 mph - N/A   Clear
2:55 PM 51.8 °F - 33.3 °F 49% 29.62 in 10.0 mi SW 15.0 mph - N/A   Clear
3:15 PM 51.3 °F - 33.4 °F 51% 29.63 in 10.0 mi SW 11.5 mph - N/A   Clear
3:35 PM 50.5 °F - 34.3 °F 54% 29.64 in 10.0 mi WSW 10.4 mph - N/A   Clear
3:55 PM 48.2 °F - 34.7 °F 60% 29.63 in 10.0 mi SSW 8.1 mph - N/A   Clear
4:15 PM 47.8 °F - 34.9 °F 61% 29.65 in 10.0 mi SW 8.1 mph - N/A   Scattered Clouds
4:35 PM 46.6 °F - 34.7 °F 63% 29.65 in 10.0 mi SW 6.9 mph - N/A   Scattered Clouds
4:55 PM 45.5 °F 42.5 °F 34.3 °F 65% 29.66 in 10.0 mi SW 5.8 mph - N/A   Clear
5:15 PM 47.1 °F - 35.2 °F 63% 29.66 in 10.0 mi SW 5.8 mph - N/A   Clear
5:35 PM 45.3 °F 41.1 °F 34.2 °F 65% 29.67 in 10.0 mi SW 8.1 mph - N/A   Clear
5:55 PM 43.9 °F 39.9 °F 33.1 °F 66% 29.69 in 10.0 mi West 6.9 mph - N/A   Clear
6:15 PM 42.3 °F 38.6 °F 32.7 °F 69% 29.70 in 10.0 mi West 5.8 mph - N/A   Clear
6:35 PM 42.6 °F 39.0 °F 33.3 °F 69% 29.71 in 10.0 mi WSW 5.8 mph - N/A   Clear
6:55 PM 41.4 °F 34.0 °F 33.3 °F 73% 29.74 in 10.0 mi WNW 13.8 mph - N/A   Clear
7:15 PM 46.6 °F - 31.8 °F 56% 29.76 in 10.0 mi NW 15.0 mph 23.0 mph N/A   Clear
7:35 PM 45.1 °F 38.8 °F 31.8 °F 60% 29.78 in 10.0 mi NW 13.8 mph - N/A   Clear
7:55 PM 44.8 °F 37.7 °F 31.8 °F 60% 29.80 in 10.0 mi NW 16.1 mph - N/A   Scattered Clouds
8:15 PM 43.9 °F 37.5 °F 31.5 °F 62% 29.80 in 10.0 mi NW 12.7 mph 18.4 mph N/A   Mostly Cloudy
8:35 PM 43.7 °F 38.1 °F 31.1 °F 61% 29.81 in 10.0 mi NW 10.4 mph - N/A   Scattered Clouds
8:55 PM 42.1 °F 35.7 °F 31.1 °F 65% 29.83 in 10.0 mi WNW 11.5 mph - N/A   Clear
9:15 PM 41.7 °F 36.7 °F 31.1 °F 66% 29.82 in 10.0 mi WNW 8.1 mph - N/A   Clear
9:35 PM 40.5 °F 34.6 °F 31.1 °F 69% 29.83 in 10.0 mi WNW 9.2 mph - N/A   Clear
9:55 PM 38.5 °F 32.7 °F 30.7 °F 74% 29.83 in 10.0 mi West 8.1 mph - N/A   Clear
10:15 PM 37.8 °F 31.3 °F 30.7 °F 76% 29.84 in 10.0 mi West 9.2 mph - N/A   Clear
10:35 PM 37.8 °F 30.7 °F 30.9 °F 76% 29.85 in 10.0 mi West 10.4 mph - N/A   Clear
10:55 PM 38.1 °F 31.2 °F 31.1 °F 76% 29.85 in 10.0 mi WNW 10.4 mph - N/A   Clear
11:15 PM 37.6 °F 30.5 °F 31.3 °F 78% 29.86 in 10.0 mi WNW 10.4 mph - N/A   Clear
11:55 PM 37.6 °F 30.0 °F 31.3 °F 78% 29.87 in 10.0 mi WNW 11.5 mph - N/A   Clear